Temp
8 8 8 8 7 7 8 8 9 9 9 9 9 9 10 9 9 9 9 9 9 9 9 8 7 7 6 6 6 6 6 6 5 5 5 5 5 5 5 5 5 5 5 5 5 6 6 6 6
8 7 8 8 7 7 9 10 10 9 9 9 9 9 9 9 9 9 9 9 8 9 8 8 8 7 7 6 6 6 6 6 6 5 5 5 5 5 5 5 5 5 5 5 5 5 6 6 7
7 7 7 6 7 8 9 10 10 10 9 9 9 9 8 9 9 9 9 8 7 8 8 8 7 7 7 7 7 6 6 6 6 5 5 5 4 5 5 5 5 5 5 5 5 5 5 6 6
7 6 6 7 9 10 10 10 9 9 9 9 9 8 9 9 9 9 8 8 7 7 8 7 7 7 7 7 7 7 7 6 5 5 4 5 4 4 5 5 5 5 5 5 5 5 5 5 6
6 6 6 7 9 9 10 9 9 9 8 9 8 8 8 9 9 9 9 8 7 6 6 6 7 7 7 7 7 7 6 6 5 5 5 4 5 5 4 4 4 4 4 5 5 5 5 5 5
5 5 5 7 8 9 9 9 8 8 8 8 8 8 8 8 8 8 8 8 8 7 7 6 6 6 6 6 7 7 6 6 5 4 4 4 4 4 5 5 4 4 5 5 5 5 5 5 5
6 5 6 7 8 8 8 8 8 8 8 8 8 8 8 8 8 8 8 8 8 8 7 7 6 6 6 6 6 6 6 5 5 4 4 4 4 4 4 4 5 5 5 5 5 5 5 5 5
6 5 5 6 7 8 8 8 8 8 8 8 7 7 8 8 8 7 8 8 7 7 7 7 7 7 7 6 6 6 6 6 5 5 5 5 4 4 5 5 5 5 4 5 5 5 5 5 5
6 4 6 7 7 8 7 7 7 7 7 7 7 7 7 7 7 7 7 7 7 7 7 7 6 6 6 6 6 6 5 5 5 5 4 4 5 5 5 4 5 5 5 5 5 5 5 5 5
5 5 7 7 7 7 6 6 6 7 7 7 7 7 7 7 7 6 6 6 6 6 6 6 6 6 6 5 5 5 5 5 4 4 4 4 4 4 4 5 5 5 5 5 5 5 5 5 5
5 6 7 6 6 5 6 6 6 6 7 7 6 6 6 6 6 6 6 6 6 5 5 5 5 5 5 5 5 4 4 4 4 4 4 3 3 4 4 5 5 5 5 5 5 5 5 6 6
4 6 6 6 5 5 5 5 5 5 7 6 6 5 6 6 6 6 6 5 5 5 5 5 5 5 5 4 4 4 4 3 3 3 3 3 3 3 3 4 4 4 5 5 5 5 5 5 5
4 6 5 5 5 4 4 5 4 6 6 6 6 6 6 6 6 6 5 5 5 5 5 4 4 4 4 4 4 4 3 3 3 3 3 3 3 3 3 4 4 4 4 4 5 5 5 5 5
5 5 5 4 4 4 4 4 3 6 6 6 6 6 6 6 6 6 6 5 5 5 4 4 4 4 3 3 3 3 3 3 3 2 2 2 2 2 3 3 3 4 4 4 5 4 4 4 5
4 4 4 4 5 4 4 4 5 6 6 7 7 7 6 6 6 6 5 5 4 4 3 3 3 3 3 3 2 2 2 2 1 1 2 2 2 2 2 2 2 3 3 3 3 3 4 3 4
2 2 3 4 5 4 4 4 4 6 6 6 6 6 6 6 6 6 5 4 4 4 3 3 3 2 2 2 1 1 1 1 1 1 1 1 1 1 1 2 2 2 2 2 2 2 2 3 3
2 2 2 3 4 4 4 4 4 4 5 5 5 5 5 5 6 5 5 5 4 3 3 2 2 2 1 1 1 0 0 0 0 0 0 1 1 1 1 1 1 1 1 1 1 1 1 2 2
3 2 2 2 3 3 3 4 4 4 4 4 4 5 5 5 5 4 4 3 3 3 2 2 1 1 1 0 0 -0 -1 -1 -1 -1 -1 -0 -0 -0 0 1 1 1 1 1 1 1 1 1 1
1 1 1 2 3 2 3 3 4 3 3 4 5 5 5 4 4 3 3 3 2 2 2 1 1 -0 -1 -1 -1 -1 -2 -2 -2 -2 -2 -1 -1 -1 -1 -1 -0 0 0 0 0 1 2 2 2
1 1 1 2 2 2 2 3 3 3 4 4 5 5 5 4 4 3 3 2 1 1 1 0 0 -1 -2 -2 -2 -2 -2 -3 -3 -3 -3 -3 -3 -2 -2 -2 -2 -2 -2 -1 -1 -0 0 1 1
1 1 1 0 0 0 -0 1 2 3 3 3 4 4 4 3 3 2 2 1 0 -0 -0 -0 -1 -2 -3 -3 -3 -4 -4 -4 -5 -5 -5 -4 -4 -4 -4 -4 -4 -3 -3 -2 -1 -1 -0 0 1
-0 0 -0 -1 -1 -2 -3 -4 -0 1 2 2 3 3 2 2 2 2 1 1 0 -1 -2 -2 -3 -4 -4 -4 -5 -5 -5 -6 -6 -6 -6 -6 -6 -5 -5 -5 -5 -4 -4 -3 -2 -2 -1 -1 -1
-1 -1 -2 -2 -3 -4 -4 -3 1 0 0 1 1 0 1 1 1 1 0 -0 -2 -2 -4 -4 -4 -5 -5 -5 -6 -5 -6 -6 -7 -7 -7 -7 -7 -6 -6 -6 -5 -5 -4 -4 -3 -3 -2 -2 -2
-2 -3 -3 -4 -4 -7 -3 -3 -1 -1 -1 -2 -1 -0 -0 -0 -0 -1 -1 -1 -1 -3 -5 -6 -6 -6 -6 -6 -7 -7 -7 -8 -8 -8 -8 -8 -8 -7 -7 -6 -6 -5 -5 -5 -4 -4 -4 -3 -3
-4 -5 -5 -5 -9 -6 -5 -5 -2 -2 -1 -2 -2 -2 -1 -1 -2 -2 -2 -2 -2 -3 -4 -5 -6 -7 -8 -8 -8 -8 -8 -8 -9 -9 -9 -9 -9 -8 -8 -7 -7 -6 -6 -5 -5 -5 -5 -5 -5
-5 -6 -6 -5 -7 -8 -6 -6 -3 -3 -3 -4 -4 -4 -4 -3 -4 -4 -4 -3 -3 -3 -4 -5 -6 -7 -7 -8 -8 -9 -10 -10 -10 -10 -10 -9 -9 -9 -8 -8 -8 -7 -7 -7 -7 -7 -6 -7 -7
-7 -7 -9 -10 -8 -8 -5 -4 -4 -5 -5 -6 -7 -7 -6 -5 -5 -6 -5 -5 -5 -5 -5 -5 -7 -8 -9 -9 -10 -10 -11 -11 -11 -11 -11 -10 -10 -10 -10 -9 -9 -9 -9 -8 -9 -9 -9 -9 -9
-6 -7 -8 -9 -8 -7 -8 -6 -4 -6 -7 -7 -7 -7 -6 -6 -6 -6 -6 -6 -6 -6 -6 -7 -9 -10 -11 -11 -12 -12 -13 -13 -13 -12 -12 -12 -11 -11 -11 -11 -11 -11 -11 -11 -11 -11 -11 -11 -11
-6 -7 -7 -8 -7 -8 -8 -6 -6 -7 -8 -8 -8 -7 -7 -7 -7 -7 -7 -7 -7 -7 -7 -8 -10 -11 -11 -12 -12 -13 -13 -13 -13 -13 -13 -13 -13 -13 -12 -12 -12 -12 -13 -13 -13 -13 -13 -12 -12
-7 -8 -8 -9 -9 -8 -8 -7 -5 -6 -7 -6 -7 -7 -8 -8 -8 -8 -7 -8 -8 -8 -8 -9 -10 -12 -12 -12 -13 -13 -14 -14 -14 -14 -14 -14 -14 -13 -13 -13 -13 -14 -14 -14 -14 -14 -14 -14 -14
Height
3118 3119 3119 3120 3125 3118 3113 3114 3114 3116 3118 3118 3118 3118 3120 3119 3121 3124 3121 3122 3123 3125 3126 3127 3131 3133 3135 3136 3137 3138 3139 3141 3143 3144 3145 3147 3149 3150 3152 3151 3153 3153 3156 3156 3157 3158 3158 3160 3161
3114 3115 3116 3116 3117 3112 3109 3110 3111 3113 3114 3115 3115 3116 3116 3116 3117 3118 3119 3120 3121 3122 3123 3125 3128 3130 3131 3133 3135 3136 3137 3139 3141 3143 3143 3144 3146 3148 3150 3150 3152 3153 3154 3155 3156 3157 3159 3159 3161
3112 3112 3114 3112 3108 3104 3105 3107 3110 3110 3111 3111 3113 3113 3113 3113 3115 3115 3115 3116 3118 3119 3120 3121 3124 3126 3127 3128 3130 3132 3133 3135 3138 3140 3141 3142 3143 3146 3147 3148 3149 3151 3153 3155 3156 3156 3157 3159 3160
3108 3109 3109 3104 3099 3102 3103 3105 3106 3107 3107 3107 3109 3110 3110 3112 3112 3112 3112 3112 3114 3116 3118 3119 3120 3121 3122 3124 3126 3128 3129 3132 3134 3135 3137 3139 3140 3142 3144 3146 3147 3149 3150 3152 3153 3155 3156 3158 3159
3105 3104 3102 3096 3094 3097 3100 3102 3103 3103 3104 3105 3106 3105 3106 3107 3108 3109 3109 3109 3110 3112 3115 3116 3117 3118 3119 3120 3122 3124 3125 3127 3130 3131 3132 3134 3136 3137 3140 3142 3144 3146 3147 3149 3150 3152 3153 3155 3157
3102 3100 3096 3091 3091 3095 3097 3099 3099 3100 3100 3101 3101 3102 3103 3104 3104 3105 3105 3106 3107 3108 3110 3112 3114 3116 3118 3119 3121 3121 3121 3123 3125 3127 3128 3130 3131 3133 3135 3137 3140 3142 3143 3145 3147 3149 3151 3153 3154
3097 3096 3091 3090 3089 3090 3094 3094 3095 3096 3096 3096 3097 3097 3099 3100 3100 3101 3101 3102 3103 3104 3105 3107 3109 3111 3113 3115 3117 3117 3118 3119 3121 3122 3124 3126 3128 3129 3132 3133 3135 3137 3139 3140 3143 3145 3147 3149 3150
3092 3091 3085 3085 3086 3085 3088 3089 3090 3090 3091 3092 3091 3090 3094 3095 3095 3095 3096 3096 3098 3100 3101 3102 3105 3107 3109 3110 3111 3113 3115 3116 3117 3118 3120 3121 3123 3125 3128 3131 3131 3133 3135 3136 3138 3139 3141 3144 3146
3087 3084 3078 3078 3081 3081 3083 3084 3084 3084 3084 3085 3085 3087 3090 3090 3090 3091 3091 3091 3093 3094 3096 3098 3099 3101 3104 3105 3107 3107 3109 3111 3113 3114 3116 3118 3119 3121 3122 3123 3126 3128 3129 3131 3132 3135 3136 3138 3140
3077 3074 3072 3074 3076 3076 3077 3077 3078 3078 3078 3078 3080 3082 3084 3085 3085 3085 3086 3086 3087 3088 3090 3092 3093 3095 3098 3099 3101 3103 3105 3106 3108 3110 3112 3113 3115 3116 3118 3119 3120 3121 3124 3125 3126 3128 3130 3133 3135
3069 3065 3069 3070 3070 3071 3071 3071 3071 3071 3072 3075 3077 3077 3077 3078 3079 3080 3081 3082 3082 3082 3084 3086 3088 3090 3092 3093 3095 3097 3099 3100 3102 3103 3105 3106 3108 3110 3111 3113 3114 3116 3116 3118 3120 3122 3124 3126 3128
3062 3063 3063 3064 3065 3064 3064 3064 3063 3064 3068 3068 3069 3070 3070 3071 3073 3074 3075 3075 3076 3077 3079 3080 3082 3084 3086 3087 3088 3090 3092 3094 3096 3098 3099 3100 3101 3103 3104 3106 3107 3110 3111 3113 3114 3116 3118 3121 3122
3057 3058 3058 3058 3059 3057 3056 3056 3056 3057 3061 3061 3062 3062 3063 3064 3066 3067 3068 3068 3069 3070 3072 3074 3077 3078 3079 3081 3083 3084 3086 3088 3089 3091 3093 3094 3096 3097 3098 3099 3100 3102 3104 3107 3109 3111 3113 3115 3116
3052 3051 3051 3051 3052 3049 3049 3049 3047 3055 3054 3054 3054 3055 3055 3056 3057 3058 3060 3061 3063 3064 3065 3067 3069 3071 3073 3075 3077 3079 3080 3081 3082 3084 3085 3086 3087 3089 3091 3092 3094 3096 3098 3099 3102 3104 3107 3109 3110
3046 3044 3044 3044 3046 3044 3045 3036 3040 3049 3046 3045 3046 3046 3047 3048 3049 3051 3053 3053 3055 3057 3058 3060 3062 3064 3066 3068 3070 3072 3074 3075 3077 3077 3078 3079 3079 3080 3082 3084 3086 3088 3090 3092 3094 3097 3099 3101 3103
3043 3039 3036 3039 3041 3039 3040 3025 3038 3039 3039 3039 3039 3040 3041 3041 3042 3043 3044 3046 3047 3048 3050 3051 3054 3056 3058 3060 3062 3065 3066 3067 3069 3071 3072 3072 3072 3074 3074 3076 3077 3078 3080 3083 3086 3089 3092 3094 3095
3038 3032 3031 3034 3037 3033 3032 3024 3031 3033 3033 3033 3034 3035 3035 3036 3036 3037 3039 3040 3041 3041 3042 3044 3046 3048 3050 3052 3054 3056 3058 3060 3061 3063 3064 3065 3066 3067 3068 3069 3070 3072 3074 3075 3078 3081 3084 3086 3088
3032 3030 3028 3030 3031 3027 3023 3018 3024 3026 3026 3027 3027 3028 3028 3029 3029 3029 3030 3032 3033 3033 3034 3035 3036 3038 3040 3042 3045 3047 3049 3052 3054 3055 3055 3056 3058 3059 3061 3061 3063 3064 3067 3068 3070 3073 3076 3079 3080
3031 3028 3025 3026 3025 3020 3016 3009 3016 3019 3016 3018 3019 3020 3019 3017 3018 3018 3020 3021 3023 3024 3024 3026 3028 3031 3033 3036 3038 3040 3042 3044 3046 3047 3048 3050 3051 3053 3054 3055 3056 3056 3058 3060 3061 3063 3065 3069 3071
3027 3024 3021 3021 3019 3014 3008 2998 3003 3008 3005 3008 3010 3008 3006 3005 3006 3006 3008 3010 3013 3015 3017 3019 3020 3023 3026 3028 3030 3033 3035 3036 3038 3040 3042 3043 3044 3046 3047 3048 3049 3050 3051 3053 3055 3056 3057 3060 3063
3022 3020 3018 3017 3013 3008 3002 2987 2992 2995 2999 2999 2999 2998 2996 2995 2995 2995 2997 2999 3002 3004 3008 3010 3012 3015 3018 3020 3023 3025 3027 3029 3032 3034 3036 3037 3038 3039 3041 3042 3043 3044 3045 3047 3048 3050 3050 3052 3054
3014 3014 3013 3010 3009 3003 3001 2988 2984 2988 2992 2991 2989 2987 2986 2986 2986 2986 2987 2989 2992 2995 3000 3003 3005 3007 3010 3014 3016 3018 3021 3023 3026 3027 3029 3031 3032 3033 3034 3035 3036 3037 3038 3038 3040 3041 3042 3043 3044
3010 3007 3006 3005 3003 3000 2996 2999 2976 2983 2983 2981 2980 2979 2978 2979 2979 2979 2980 2981 2984 2987 2992 2996 2998 3002 3005 3008 3010 3013 3015 3017 3019 3021 3023 3025 3026 3027 3028 3029 3030 3031 3031 3031 3031 3032 3033 3034 3034
3006 3002 3002 2999 2998 2997 2989 2991 2975 2978 2977 2975 2976 2975 2974 2974 2975 2976 2977 2977 2979 2981 2984 2988 2992 2996 2999 3002 3004 3006 3008 3010 3012 3014 3015 3017 3019 3020 3021 3022 3023 3023 3024 3024 3024 3025 3025 3025 3024
3000 3001 3000 2995 2996 2987 2984 2986 2976 2976 2974 2976 2975 2971 2970 2970 2973 2975 2976 2976 2977 2978 2980 2983 2988 2992 2995 2997 2999 3000 3002 3003 3005 3007 3008 3010 3012 3013 3014 3015 3015 3015 3015 3016 3015 3015 3015 3015 3014
2998 2999 2999 2990 2989 2986 2983 2978 2975 2973 2973 2972 2972 2972 2970 2971 2973 2975 2975 2976 2977 2977 2978 2980 2983 2986 2989 2991 2992 2993 2995 2996 2999 3000 3002 3003 3004 3005 3005 3006 3006 3006 3006 3006 3005 3004 3004 3004 3005
2995 2995 2996 2994 2988 2986 2975 2973 2974 2971 2972 2970 2970 2971 2970 2971 2971 2972 2972 2971 2972 2972 2974 2976 2979 2981 2982 2983 2984 2985 2987 2989 2991 2993 2995 2996 2996 2996 2997 2997 2996 2996 2995 2995 2994 2993 2993 2993 2993
2992 2994 2994 2993 2988 2980 2972 2970 2967 2967 2968 2969 2969 2969 2967 2965 2966 2966 2965 2965 2965 2965 2966 2968 2971 2973 2974 2976 2976 2978 2979 2981 2983 2985 2987 2988 2989 2989 2989 2989 2988 2986 2985 2983 2983 2983 2982 2983 2982
2987 2985 2985 2985 2983 2978 2975 2968 2966 2965 2965 2966 2965 2964 2962 2960 2960 2959 2958 2959 2959 2959 2960 2963 2964 2967 2968 2969 2971 2973 2975 2977 2979 2980 2980 2981 2981 2981 2981 2980 2978 2975 2973 2971 2972 2972 2972 2973 2974
2980 2979 2980 2978 2975 2970 2968 2965 2962 2962 2962 2962 2959 2958 2957 2955 2954 2953 2953 2953 2954 2955 2955 2956 2958 2960 2962 2963 2965 2967 2969 2971 2972 2972 2973 2974 2974 2973 2972 2970 2968 2966 2965 2964 2963 2963 2963 2964 2964
Wind_Speed
12 12 13 13 11 13 23 28 27 26 19 20 23 23 22 22 20 10 12 10 12 17 18 22 18 19 19 17 16 15 13 13 12 10 10 10 10 9 9 8 7 7 9 10 11 14 12 7 4
14 14 15 16 16 20 25 24 26 24 23 22 21 21 21 21 21 23 25 23 18 14 17 20 21 19 22 21 19 20 18 17 16 14 14 13 12 10 10 10 9 9 8 9 11 11 10 8 8
17 17 17 13 23 32 30 24 20 19 22 22 21 20 22 23 22 24 24 23 20 16 18 18 20 22 24 21 17 18 19 19 17 17 15 16 14 14 13 11 10 10 11 12 9 8 8 8 9
19 19 20 24 27 21 21 24 22 18 18 18 20 20 25 23 24 23 20 20 20 19 21 21 21 22 25 22 20 18 20 22 21 19 17 15 17 15 16 14 15 15 14 13 17 14 12 8 9
21 23 25 28 33 31 27 23 19 19 19 19 19 24 24 22 22 20 19 19 22 23 24 24 22 23 25 26 24 22 22 22 21 21 20 18 15 18 19 16 17 16 16 17 15 16 15 13 13
23 25 23 31 35 30 26 24 24 25 24 24 24 24 24 23 20 20 20 21 21 22 23 23 21 22 24 25 23 23 21 20 21 21 21 21 18 18 19 20 18 19 19 18 18 17 17 17 16
27 28 34 34 36 33 27 25 24 25 26 26 27 27 26 23 21 20 22 22 22 23 23 22 22 23 24 23 23 23 22 22 22 22 22 22 20 20 20 20 21 21 21 22 21 21 21 20 18
28 31 38 38 38 38 33 30 28 27 26 26 27 29 25 21 20 20 22 24 24 25 25 24 24 24 24 24 23 23 22 21 21 20 21 21 21 22 21 22 22 23 24 23 22 23 24 24 23
29 32 40 40 38 38 34 31 28 26 25 26 30 29 25 23 22 19 20 23 25 26 26 26 26 26 25 25 25 24 23 22 22 22 23 22 23 23 24 24 23 24 25 25 25 25 25 26 25
31 37 40 38 36 36 35 33 29 29 28 29 27 26 25 23 23 23 20 21 23 25 28 27 28 28 27 26 26 25 25 25 24 24 25 25 25 26 27 27 28 28 27 27 26 26 26 28 27
33 39 35 35 35 34 34 33 31 30 30 28 25 24 24 26 26 26 24 23 24 26 28 29 29 29 28 28 28 27 27 27 27 28 28 28 29 29 30 30 30 29 29 27 26 27 27 28 29
35 34 34 34 34 34 35 35 36 36 31 30 29 26 27 28 28 27 26 25 26 26 29 30 30 31 31 30 29 29 28 28 29 29 30 30 30 30 30 28 28 27 26 26 27 27 27 27 27
33 32 33 33 33 34 36 35 34 34 29 29 30 31 30 30 29 29 27 27 28 29 29 30 31 32 33 32 32 31 31 31 32 31 31 31 31 31 30 28 27 27 27 26 27 27 28 28 29
32 32 31 29 27 32 35 35 36 26 29 32 32 31 31 30 29 29 29 28 28 29 29 31 33 34 34 35 34 34 34 34 34 34 34 33 32 30 29 28 28 28 28 28 28 28 28 29 30
32 34 33 34 32 34 33 43 39 28 30 30 29 29 29 28 29 28 28 29 28 28 29 31 33 35 36 36 36 35 35 35 35 34 35 34 32 31 30 30 30 29 29 29 29 28 28 28 28
30 32 34 29 26 27 27 44 30 24 23 24 24 24 23 24 24 26 28 28 28 29 31 33 35 36 37 37 37 37 37 37 36 36 35 34 33 32 31 31 32 31 30 30 28 28 27 28 29
29 33 34 33 29 31 31 38 29 24 24 22 22 22 23 23 24 24 24 25 27 29 31 33 35 36 37 38 38 38 37 37 37 36 35 35 34 33 33 32 33 34 33 32 31 30 29 28 29
29 29 29 27 25 29 34 40 32 30 32 31 32 32 33 33 33 35 33 32 32 33 33 34 37 39 39 39 39 38 37 37 36 35 34 35 34 34 34 34 36 36 37 35 34 33 31 29 30
28 31 34 30 31 37 38 45 39 35 36 35 33 31 33 35 35 36 36 36 36 36 36 36 36 37 38 37 38 37 36 36 35 35 35 35 35 35 35 35 36 36 36 34 33 34 34 33 33
25 30 33 33 31 32 37 49 47 43 45 40 33 33 34 36 38 40 39 37 36 36 35 35 35 35 36 36 36 36 37 36 35 35 35 35 35 35 34 34 34 34 33 33 33 33 34 35 35
26 30 35 36 38 41 43 54 40 22 11 19 29 34 31 34 34 33 32 35 36 37 36 35 34 34 35 34 34 35 36 35 35 35 35 34 34 34 34 33 32 32 31 31 32 33 35 37 37
35 33 32 31 27 17 14 13 32 29 20 22 22 34 33 26 21 22 22 21 27 32 33 33 34 33 32 32 32 33 33 34 34 34 34 33 33 33 32 31 30 30 30 30 31 32 34 36 39
31 31 29 27 25 24 20 9 26 26 31 30 30 23 10 7 5 7 12 15 19 23 27 29 30 30 29 29 28 31 32 32 33 33 33 33 32 31 30 29 28 28 29 30 31 32 34 37 39
31 29 27 25 20 6 16 15 20 10 8 4 9 11 10 8 6 2 3 6 10 18 24 27 28 27 26 27 27 28 29 30 31 32 32 31 30 29 28 27 27 28 29 30 33 35 36 37 38
21 20 5 4 1 6 4 9 19 20 16 10 4 9 6 8 10 9 7 4 4 9 15 20 23 23 23 24 25 27 28 29 30 30 29 28 27 26 26 26 27 30 32 34 34 35 36 35 35
11 5 4 5 2 4 4 7 2 7 8 9 10 12 10 8 8 9 7 6 2 6 11 15 18 22 24 25 27 29 29 29 29 28 28 28 27 27 28 30 35 34 35 35 34 35 35 34 33
7 6 7 6 13 4 8 10 3 7 4 4 7 8 12 11 9 11 10 11 9 8 9 13 17 22 25 26 27 28 28 29 28 28 29 29 28 29 32 34 33 34 34 34 33 33 33 32 32
9 9 5 6 4 4 4 6 7 6 6 12 13 17 22 26 26 25 20 14 14 15 16 19 23 25 26 28 29 29 29 28 27 26 26 26 27 29 30 31 32 32 32 31 30 30 30 30 31
17 20 14 10 9 3 2 5 8 8 11 6 17 28 31 27 24 18 15 11 11 14 16 20 24 25 26 27 28 28 29 28 26 26 25 25 28 28 29 31 31 30 29 29 29 29 29 29 30
24 24 22 10 5 10 5 7 15 8 4 18 29 34 28 24 20 13 9 13 16 15 16 19 22 26 26 27 27 28 29 29 28 28 28 27 26 29 29 29 27 27 28 29 29 30 31 30 30
Wind_Direction
245 244 238 226 215 227 238 241 248 251 245 243 240 239 252 249 248 247 255 243 248 243 240 229 220 218 212 226 232 233 227 236 235 225 214 213 235 231 224 206 210 219 219 209 198 200 210 200 217
239 240 234 229 226 232 249 252 253 256 253 251 250 247 245 248 253 259 262 262 259 239 232 229 223 222 220 224 234 246 238 235 235 233 230 227 230 229 236 229 231 230 230 232 225 223 220 206 207
236 234 230 225 234 237 249 263 264 259 254 251 249 247 248 253 264 273 275 267 251 242 227 219 221 226 223 227 232 236 237 238 238 243 238 234 232 229 237 233 240 245 240 236 235 230 220 212 207
237 233 231 233 239 253 254 259 264 263 250 247 248 244 250 260 270 282 279 270 254 239 233 239 240 232 223 230 236 237 230 236 239 242 247 242 240 236 234 234 230 233 243 242 242 248 239 222 215
239 235 233 242 246 252 256 259 262 258 247 247 248 250 255 263 270 274 275 269 258 251 245 253 248 240 227 232 240 243 237 233 236 237 245 246 238 242 246 242 239 243 239 244 241 240 238 238 231
242 238 240 245 254 258 258 262 262 256 254 252 253 255 256 262 269 268 270 267 262 255 251 256 249 245 242 251 256 252 242 228 230 233 241 244 250 243 247 252 247 247 248 243 246 247 247 240 235
248 246 250 255 261 264 261 266 266 267 260 261 261 258 260 266 267 269 267 263 258 254 252 250 249 248 248 251 256 256 254 247 240 237 238 244 245 246 247 251 253 249 247 245 248 246 247 249 246
254 249 253 256 260 265 266 267 273 272 268 259 258 256 263 264 269 264 259 258 254 252 250 247 246 249 256 260 256 255 254 256 259 257 254 252 253 250 249 250 253 254 255 253 252 251 251 251 247
256 246 255 259 261 265 270 272 273 271 265 262 261 262 266 264 266 268 263 262 256 251 249 248 247 248 248 250 255 261 263 262 261 259 258 258 258 261 264 264 258 257 258 258 255 253 253 253 252
245 248 260 267 266 267 270 272 274 270 269 263 260 261 266 264 265 271 270 261 256 251 249 244 244 246 247 248 251 252 255 256 256 258 259 259 260 262 263 264 265 265 259 256 255 255 254 253 251
253 256 267 268 272 272 272 272 272 270 265 271 276 269 261 259 259 265 272 264 254 245 243 243 244 245 246 248 249 248 249 251 252 253 254 258 260 262 263 264 264 263 262 261 258 256 254 254 252
258 268 268 270 270 270 270 271 270 268 269 271 270 264 259 262 267 269 269 263 254 251 249 245 243 245 247 248 248 251 251 251 252 254 258 261 266 267 265 262 260 257 255 255 257 258 257 254 253
265 272 270 270 272 272 271 271 270 268 270 269 269 271 272 271 270 269 267 259 254 250 246 245 246 246 246 248 249 249 251 255 257 258 261 264 265 266 266 264 262 262 262 259 255 252 252 253 253
271 273 272 269 270 269 271 271 267 272 275 276 273 272 271 270 267 262 259 258 256 253 249 245 243 244 245 247 248 250 251 252 255 260 263 265 264 263 262 260 260 260 260 261 260 258 252 249 248
269 269 269 269 272 271 276 273 273 284 277 273 269 266 266 267 263 262 259 255 251 250 248 246 245 244 245 246 248 251 253 255 257 258 262 265 266 266 266 266 264 263 261 260 258 256 256 254 250
268 272 273 274 275 274 272 270 283 288 279 274 272 270 266 263 262 257 255 255 254 250 247 244 243 244 244 246 247 248 249 252 255 259 261 260 260 262 264 268 273 273 271 269 263 258 253 253 256
266 265 270 277 281 280 276 278 290 288 283 276 271 272 271 269 264 259 258 259 261 258 252 248 246 245 245 246 247 249 250 253 255 257 259 260 261 261 264 267 268 270 269 267 265 263 261 259 258
269 269 281 285 288 283 284 283 285 286 283 282 280 280 279 276 271 267 264 259 257 254 252 247 244 242 243 244 247 249 252 254 258 260 260 262 264 267 268 268 268 267 265 263 261 260 260 264 267
278 277 279 283 287 287 287 287 287 286 280 282 282 281 278 274 270 266 262 259 255 250 250 250 249 249 249 250 250 252 255 258 259 261 262 263 266 267 268 268 268 267 265 265 266 267 267 268 270
277 277 280 292 290 288 291 286 288 286 286 288 285 271 268 266 264 261 260 258 255 253 253 253 253 252 248 248 250 254 255 257 259 260 261 263 264 265 267 268 266 265 265 265 267 269 272 273 272
291 284 289 288 290 289 291 290 297 297 296 280 282 283 273 263 264 267 265 256 252 251 251 252 252 251 250 248 250 253 256 258 259 260 262 264 265 266 267 265 263 262 263 266 268 270 271 273 273
295 297 291 288 289 284 286 292 289 296 296 295 280 283 278 274 264 259 257 253 248 247 247 246 247 248 249 250 250 254 256 258 259 260 262 263 264 264 262 261 261 263 265 267 270 273 275 277 277
291 295 290 286 285 287 278 246 289 292 291 274 267 272 253 267 285 273 248 234 229 231 237 242 245 248 250 252 255 259 259 259 260 261 263 263 262 261 259 259 261 265 269 273 275 277 278 278 276
279 281 287 284 272 261 279 231 290 297 298 287 276 287 298 302 302 346 249 238 229 218 221 229 236 241 247 250 252 255 257 258 259 259 260 261 260 259 260 263 267 271 274 276 277 276 273 271 270
280 273 302 267 179 233 296 212 255 276 271 303 38 71 57 45 62 59 51 71 166 207 219 225 230 238 248 253 257 258 257 256 256 257 259 259 261 264 268 271 275 279 280 277 275 275 273 270 269
291 222 216 278 253 288 308 238 291 17 98 103 38 25 28 9 358 3 15 6 326 220 221 222 229 236 241 244 247 249 251 251 253 254 256 258 261 266 275 280 280 278 277 276 275 274 272 271 269
281 253 259 285 275 237 239 251 266 168 143 42 12 5 358 352 337 323 313 303 285 255 227 217 226 233 238 241 242 244 245 245 245 246 249 255 263 270 277 279 279 278 277 276 276 275 274 274 274
304 313 245 234 273 252 297 271 197 151 358 347 353 335 324 318 316 318 317 308 285 264 239 228 224 228 233 240 243 241 238 236 238 244 252 261 270 275 278 281 281 281 280 279 280 280 280 280 279
266 267 253 235 226 244 284 267 163 296 328 333 324 323 318 314 316 312 300 290 273 259 251 240 231 233 238 243 245 241 238 239 245 254 263 276 281 285 286 286 286 287 287 286 285 283 282 280 278
263 263 258 236 226 223 224 253 298 295 289 296 321 317 311 315 315 313 301 275 261 259 253 241 236 233 239 244 244 239 235 238 249 259 271 280 289 289 287 286 287 288 288 288 288 287 285 282 279